This is the latest recevied weather packets stored in our database for station/object N6GPM. If no packets are shown the sender has not sent any weather packets the latest 10 day(s).
| Time | Temp. | Humidity | Pressure | Rain* | Wind** | Luminosity | Snow |
|---|---|---|---|---|---|---|---|
| 1777439752 | 13.89° C | 62% | 1021.2 hPa | 0 mm | - | 0 W/m² | - |
| 1777439448 | 13.89° C | 62% | 1021.1 hPa | 0 mm | - | 0 W/m² | - |
| 1777439143 | 14.44° C | 61% | 1021.2 hPa | 0 mm | - | 0 W/m² | - |
| 1777438537 | 14.44° C | 61% | 1021.1 hPa | 0 mm | - | 0 W/m² | - |
| 1777438233 | 14.44° C | 61% | 1021.1 hPa | 0 mm | - | 0 W/m² | - |
| 1777437626 | 15° C | 60% | 1021.1 hPa | 0 mm | - | 0 W/m² | - |
| 1777437322 | 15° C | 60% | 1020.9 hPa | 0 mm | - | 0 W/m² | - |
| 1777437018 | 15° C | 60% | 1020.9 hPa | 0 mm | - | 0 W/m² | - |
| 1777436715 | 15° C | 60% | 1020.9 hPa | 0 mm | - | 0 W/m² | - |
| 1777435805 | 15° C | 59% | 1020.7 hPa | 0 mm | - | 0 W/m² | - |
| 1777432769 | 16.11° C | 56% | 1020.1 hPa | 0 mm | - | 0 W/m² | - |
| 1777432160 | 16.11° C | 56% | 1019.9 hPa | 0 mm | - | 0 W/m² | - |
| 1777431859 | 16.11° C | 55% | 1019.9 hPa | 0 mm | - | 0 W/m² | - |
| 1777430035 | 16.67° C | 54% | 1019.4 hPa | 0 mm | - | 1 W/m² | - |
| 1777429732 | 17.22° C | 54% | 1019.2 hPa | 0 mm | - | 2 W/m² | - |
| 1777429124 | 17.22° C | 53% | 1019.4 hPa | 0 mm | - | 10 W/m² | - |
| 1777428821 | 17.22° C | 52% | 1019.5 hPa | 0 mm | - | 14 W/m² | - |
| 1777428517 | 17.78° C | 52% | 1019.3 hPa | 0 mm | - | 18 W/m² | - |
| 1777427604 | 17.78° C | 50% | 1018.9 hPa | 0 mm | - | 29 W/m² | - |
| 1777426088 | 18.89° C | 47% | 1018.9 hPa | 0 mm | - | 73 W/m² | - |
| 1777424570 | 19.44° C | 47% | 1018.8 hPa | 0 mm | - | 53 W/m² | - |
| 1777423655 | 20.56° C | 45% | 1019 hPa | 0 mm | - | 65 W/m² | - |
| 1777423046 | 20.56° C | 46% | 1018.9 hPa | 0 mm | - | 223 W/m² | - |
| 1777422441 | 20.56° C | 45% | 1018.7 hPa | 0 mm | - | 217 W/m² | - |
| 1777421836 | 21.11° C | 45% | 1018.7 hPa | 0 mm | - | 263 W/m² | - |
* Rain latest hour (hover to see other rain measurements)
** Current wind speed in m/s (hover to see current wind gust speed)